DW0333 Tranby-Lier NO current weather conditions

sailwx.info

Wind from 126 at 5 knots

Air temperature 21.7° C
Dewpoint 10.5° C

Last reported at 2017-May-26 14:04 UTC.
Time now 2017-May-26 15:00 UTC

Location: N 59°50' E 010°17'.
View on Google Maps.

See reports from other nearby stations

  
Tides and Currents Weather Stations Pressure Air Temp Water Temp Dewpoint Dewpoint Depression Visibility Wind Speed Wind Dir Waves Ship Positions
date/time (UTC)wind fromknots sea level pressurealtimeterstation pressurevisibilityair tempwater tempwave heightnotes
2017-May-26 14:18 166 6 21.7
2017-May-26 14:04 126 5 21.7
2017-May-26 13:47 175 5 21.7
2017-May-26 13:33 190 5 21.7
2017-May-26 13:17 125 6 21.7
2017-May-26 13:02 200 6 21.7
2017-May-26 12:47 119 6 21.7
2017-May-26 12:32 155 5 22.2
2017-May-26 12:16 256 4 22.2
2017-May-26 12:02 275 3 22.2
2017-May-26 11:46 212 4 22.2
2017-May-26 11:32 116 4 21.7
2017-May-26 11:16 234 3 22.2
2017-May-26 11:02 333 1 21.7
2017-May-26 10:46 212 3 21.1
2017-May-26 10:32 313 1 20.6
2017-May-26 10:16 266 4 20.0
2017-May-26 10:02 060 2 20.0
2017-May-26 09:43 245 2 18.9
2017-May-26 09:28 212 3 18.3
2017-May-26 09:13 342 2 18.3
2017-May-26 08:58 283 2 18.3
2017-May-26 08:42 295 2 17.8
2017-May-26 08:27 275 3 17.2
2017-May-26 08:12 241 3 16.7
2017-May-26 07:56 267 2 16.7
2017-May-26 07:41 267 3 16.7
2017-May-26 07:26 251 2 16.1
2017-May-26 07:11 207 2 15.6
2017-May-26 06:56 315 1 15.0
2017-May-26 06:41 298 2 14.4
2017-May-26 06:26 318 1 13.9
2017-May-26 06:11 300 2 13.3
2017-May-26 05:56 325 1 12.8
2017-May-26 05:41 302 1 12.2
2017-May-26 05:23 321 2 11.1
2017-May-26 05:08 318 1 10.6
2017-May-26 04:53 313 1 10.6
2017-May-26 04:38 302 1 10.6
2017-May-26 04:23 292 2 10.6
2017-May-26 04:07 317 2 10.6
2017-May-26 03:52 295 1 10.6
2017-May-26 03:37 308 1 10.6
2017-May-26 03:22 321 0 10.0
2017-May-26 03:07 321 1 10.0
2017-May-26 02:51 321 1 10.6
2017-May-26 02:36 321 1 10.6
2017-May-26 02:21 291 1 10.6
2017-May-26 02:06 333 1 10.6
2017-May-26 01:51 331 1 10.6
2017-May-26 01:36 327 0 10.6
2017-May-26 01:21 307 2 10.6
2017-May-26 01:06 321 0 10.6
2017-May-26 00:51 322 1 11.1
2017-May-26 00:34 325 1 11.1
2017-May-26 00:18 314 1 11.1
2017-May-26 00:04 333 1 11.7
2017-May-25 23:48 291 3 11.7
2017-May-25 23:32 326 3 11.7
2017-May-25 23:17 295 2 12.2
2017-May-25 23:02 313 3 12.8
2017-May-25 22:47 323 4 12.8
2017-May-25 22:32 294 4 12.8
2017-May-25 22:17 295 4 12.8
2017-May-25 22:02 319 6 12.8
2017-May-25 21:46 278 5 12.8
2017-May-25 21:31 297 4 12.8
2017-May-25 21:16 270 2 13.3
2017-May-25 21:02 305 3 13.3
2017-May-25 20:46 254 4 13.9
2017-May-25 20:32 288 3 13.9
2017-May-25 20:16 318 5 14.4
2017-May-25 20:02 299 5 14.4
2017-May-25 19:44 283 5 15.0
2017-May-25 19:32 268 4 15.6
2017-May-25 19:16 264 5 15.6
2017-May-25 18:58 275 5 16.7
2017-May-25 18:43 198 3 16.7
2017-May-25 18:28 290 4 16.7
2017-May-25 18:13 317 4 16.7
2017-May-25 17:58 244 5 17.2
2017-May-25 17:42 330 6 17.8
2017-May-25 17:27 250 5 18.3
2017-May-25 17:12 295 7 18.3
2017-May-25 16:57 301 6 17.8
2017-May-25 16:41 255 6 18.3
2017-May-25 16:26 241 6 19.4
2017-May-25 16:11 245 6 19.4
2017-May-25 15:56 203 7 18.9
2017-May-25 15:41 277 6 19.4
2017-May-25 15:26 248 7 18.9
2017-May-25 15:11 212 7 18.9
2017-May-25 14:56 260 6 20.0
2017-May-25 14:39 290 7 19.4
2017-May-25 14:26 240 8 19.4
2017-May-25 14:09 289 7 19.4
2017-May-25 13:53 257 7 19.4
2017-May-25 13:38 241 7 19.4
2017-May-25 13:23 229 6 17.8
2017-May-25 13:08 176 6 17.8
2017-May-25 12:53 254 4 17.8
2017-May-25 12:37 202 4 17.8
2017-May-25 12:22 237 6 18.3
2017-May-25 12:07 269 6 17.2
2017-May-25 11:52 212 5 17.2
2017-May-25 11:36 229 5 16.7
2017-May-25 11:21 192 4 16.7
2017-May-25 11:06 229 5 16.1
2017-May-25 10:51 238 5 16.1
2017-May-25 10:36 217 6 16.1
2017-May-25 10:21 288 3 16.1
2017-May-25 10:06 186 3 15.6
2017-May-25 09:51 279 2 14.4
2017-May-25 09:34 277 2 13.3
2017-May-25 09:21 239 1 13.3
2017-May-25 09:03 306 2 13.3
2017-May-25 08:48 254 3 12.2
2017-May-25 08:33 283 3 12.2
2017-May-25 08:18 256 3 12.2
2017-May-25 08:03 286 2 12.8
2017-May-25 07:48 359 2 12.8
2017-May-25 07:32 296 2 12.2
2017-May-25 07:17 295 2 11.7
2017-May-25 07:02 298 2 11.7
2017-May-25 06:46 198 3 11.1
2017-May-25 06:32 330 3 11.1
2017-May-25 06:16 317 5 11.1
2017-May-25 06:02 315 3 11.1
2017-May-25 05:46 292 1 10.0
2017-May-25 05:32 305 1 10.0
2017-May-25 05:16 291 2 9.4
2017-May-25 05:02 303 1 8.9
2017-May-25 04:46 028 0 8.9
2017-May-25 04:31 331 1 8.3
2017-May-25 04:16 327 1 8.9
2017-May-25 03:58 323 1 8.9
2017-May-25 03:43 330 1 8.3
2017-May-25 03:28 346 1 8.3
2017-May-25 03:13 341 1 8.3
2017-May-25 02:58 327 1 8.3
2017-May-25 02:42 008 1 8.3
2017-May-25 02:27 344 1 8.3
2017-May-25 02:12 292 1 8.3
2017-May-25 01:56 336 1 8.9
2017-May-25 01:41 338 1 8.9
2017-May-25 01:26 331 0 8.9
2017-May-25 01:11 313 1 8.9
2017-May-25 00:56 349 2 8.9
2017-May-25 00:41 342 2 8.9
2017-May-25 00:26 328 1 9.4
2017-May-25 00:11 014 1 9.4
2017-May-24 23:56 350 1 9.4
2017-May-24 23:41 329 2 9.4
2017-May-24 23:26 343 2 10.0
2017-May-24 23:09 325 2 10.0
2017-May-24 22:54 329 2 10.0
2017-May-24 22:38 025 3 10.6
2017-May-24 22:23 313 4 10.6
2017-May-24 22:08 338 3 10.6
2017-May-24 21:52 346 2 11.1
2017-May-24 21:37 351 3 11.1
2017-May-24 21:22 299 3 11.1
2017-May-24 21:07 338 2 11.7
2017-May-24 20:51 029 1 11.7
2017-May-24 20:36 327 2 11.7
2017-May-24 20:21 304 2 12.2
2017-May-24 20:06 317 4 12.8
2017-May-24 19:51 324 6 12.8
2017-May-24 19:36 294 5 13.3
2017-May-24 19:21 315 5 13.9
2017-May-24 19:06 302 5 14.4
2017-May-24 18:51 314 3 15.0
2017-May-24 18:34 286 3 15.6
2017-May-24 18:21 288 3 16.7
2017-May-24 18:04 271 4 17.2
2017-May-24 17:51 254 6 17.8
2017-May-24 17:34 234 4 18.3
2017-May-24 17:18 250 4 18.9
2017-May-24 17:03 182 4 18.9
2017-May-24 16:48 104 3 18.9
2017-May-24 16:33 146 5 18.9
2017-May-24 16:17 161 4 18.3
2017-May-24 16:02 158 5 17.2
2017-May-24 15:46 139 2 17.2
2017-May-24 15:32 133 3 17.2
2017-May-24 15:16 105 4 17.2
2017-May-24 15:02 148 4 17.2